Agostonmajor, Hungary

8:28 AM CEST on October 19, 2017 (GMT +0200)
Agostonmajor

Weather History for 12970 - December, 2013

Change the Weather History Date:

Wednesday, December 25, 2013

  Actual Average Record
Temperature  
Mean Temperature 38 °F -  
Max Temperature 48 °F - - ()
Min Temperature 27 °F - - ()
Degree Days  
Heating Degree Days 28    
Moisture  
Dew Point 29 °F    
Average Humidity 69    
Maximum Humidity 86    
Minimum Humidity 35    
Precipitation  
Precipitation 0.00 in - - ()
Sea Level Pressure  
Sea Level Pressure 29.92 in    
Wind  
Wind Speed 9 mph ()    
Max Wind Speed 13 mph    
Max Gust Speed -    
Visibility 5.1 miles    
Events      
T = Trace of Precipitation, MM = Missing Value Source: Averaged Metar Reports

Daily Weather History Graph

Daily Weather History Graph

Search for Another Location

Airport or City:

Trip Planner

Search our weather history database for the weather conditions in past years. The results will help you decide how hot, cold, wet, or windy it might be!

Date:

Astronomy

Dec. 25, 2013 Rise Set
Actual Time 7:25 AM CET 3:57 PM CET
Civil Twilight 6:49 AM CET 4:32 PM CET
Nautical Twilight 6:11 AM CET 5:11 PM CET
Astronomical Twilight 5:34 AM CET 5:48 PM CET
Moon No Moon Rise 11:12 AM CET (12/25)
Length of Visible Light 9h 42m
Length of Day
8h 31m
Waning Gibbous, 51% of the Moon is Illuminated
Dec 25
Waning Gibbous
Dec 25
Last Quarter
Jan 1
New
Jan 8
First Quarter
Jan 16
Full

Hourly Weather History & Observations

Time (CET) Temp. Windchill Dew Point Humidity Pressure Visibility Wind Dir Wind Speed Gust Speed Precip Events Conditions
12:00 AM 31 °F - 27 °F 80% 30.08 in 4 mi SSE 6.7 mph - -  
12:15 AM 30.2 °F 23.5 °F 26.6 °F 86% 30.04 in 3.7 mi SSE 6.7 mph - N/A   Unknown
12:45 AM 30.2 °F 23.5 °F 26.6 °F 86% 30.04 in 3.7 mi SSE 6.7 mph - N/A   Unknown
1:00 AM 38 °F - 34 °F 78% 29.82 in 6 mi SSE 8.9 mph - -   Scattered Clouds
1:15 AM 30.2 °F 23.5 °F 26.6 °F 86% 30.04 in 3.7 mi SSE 6.7 mph - N/A   Unknown
1:45 AM 30.2 °F 22.1 °F 26.6 °F 86% 30.04 in 3.7 mi SSE 8.9 mph - N/A   Unknown
2:00 AM 30 °F - 26 °F 80% 30.06 in 4 mi SSE 8.9 mph - -  
2:15 AM 30.2 °F 23.5 °F 26.6 °F 86% 30.04 in 3.7 mi SSE 6.7 mph - N/A   Unknown
2:45 AM 30.2 °F 22.1 °F 24.8 °F 80% 30.01 in 3.7 mi SSE 8.9 mph - N/A   Unknown
3:00 AM 30 °F - 25 °F 76% 30.06 in 4 mi SSE 8.9 mph - -  
3:15 AM 30.2 °F 22.1 °F 24.8 °F 80% 30.01 in 3.7 mi SSE 8.9 mph - N/A   Unknown
3:45 AM 28.4 °F 19.9 °F 24.8 °F 86% 29.98 in 3.7 mi SSE 8.9 mph - N/A   Unknown
4:00 AM 29 °F - 25 °F 77% 30.03 in 4 mi SSE 8.9 mph - -  
4:15 AM 28.4 °F 18.7 °F 24.8 °F 86% 29.98 in 4.3 mi SSE 11.2 mph - N/A   Unknown
4:45 AM 28.4 °F 19.9 °F 24.8 °F 86% 29.98 in 4.3 mi SSE 8.9 mph - N/A   Unknown
5:00 AM 28 °F - 24 °F 80% 30.02 in 4 mi SSE 8.9 mph - -  
5:15 AM 28.4 °F 19.9 °F 24.8 °F 86% 29.98 in 4.3 mi SSE 8.9 mph - N/A   Unknown
5:45 AM - - - N/A% - - SSE 8.9 mph - N/A   Clear
6:00 AM 29 °F - 24 °F 75% 30.00 in 5 mi SSE 8.9 mph - -  
6:15 AM 28.4 °F 19.9 °F 24.8 °F 86% 29.98 in 5.0 mi SSE 8.9 mph - N/A   Unknown
6:45 AM 28.4 °F 19.9 °F 23.0 °F 80% 29.98 in 5.0 mi SSE 8.9 mph - N/A   Unknown
7:00 AM 28 °F - 24 °F 77% 30.00 in 5 mi SSE 8.9 mph - -   Clear
7:15 AM 28.4 °F 21.4 °F 23.0 °F 80% 29.95 in 5.0 mi SSE 6.7 mph - N/A   Unknown
7:45 AM 28.4 °F 19.9 °F 23.0 °F 80% 29.95 in 5.0 mi SSE 8.9 mph - N/A   Unknown
8:00 AM 29 °F - 23 °F 71% 30.00 in 5 mi SSE 8.9 mph - -   Clear
8:15 AM 30.2 °F 22.1 °F 24.8 °F 80% 29.95 in 5.0 mi SSE 8.9 mph - N/A   Unknown
8:45 AM - - - N/A% - - SSE 11.2 mph - N/A   Clear
9:00 AM 33 °F - 25 °F 63% 29.99 in 6 mi SSE 11.2 mph - -   Scattered Clouds
9:15 AM 35.6 °F 27.7 °F 26.6 °F 70% 29.95 in - SSE 11.2 mph - N/A   Clear
9:45 AM 37.4 °F 29.9 °F 26.6 °F 65% 29.95 in - SSE 11.2 mph - N/A   Clear
10:00 AM 37 °F - 28 °F 58% 29.98 in 6 mi SSE 11.2 mph - -   Scattered Clouds
10:15 AM 39.2 °F 33.1 °F 28.4 °F 65% 29.95 in - SSE 8.9 mph - N/A   Clear
10:45 AM 41.0 °F 34.4 °F 28.4 °F 61% 29.92 in - SSE 11.2 mph - N/A   Clear
11:00 AM 42 °F - 28 °F 46% 29.96 in 6 mi SSE 11.2 mph - -   Scattered Clouds
11:15 AM 44.6 °F 38.9 °F 30.2 °F 57% 29.92 in - SSE 11.2 mph - N/A   Clear
11:45 AM 48.2 °F - 28.4 °F 46% 29.89 in - SSE 13.4 mph - N/A   Clear
12:00 PM 47 °F - 29 °F 36% 29.92 in 9 mi SSE 13.4 mph - -   Scattered Clouds
12:15 PM 48.2 °F - 28.4 °F 46% 29.89 in - SSE 11.2 mph - N/A   Clear
12:45 PM 48.2 °F - 28.4 °F 46% 29.89 in - SSE 11.2 mph - N/A   Clear
1:00 PM 48 °F - 29 °F 35% 29.91 in 9 mi SSE 11.2 mph - -   Scattered Clouds
1:15 PM 48.2 °F - 30.2 °F 50% 29.89 in - SSE 13.4 mph - N/A   Clear
1:45 PM 48.2 °F - 30.2 °F 50% 29.86 in - SSE 11.2 mph - N/A   Clear
2:00 PM 48 °F - 30 °F 38% 29.89 in 9 mi SSE 11.2 mph - -   Partly Cloudy
2:15 PM 48.2 °F - 30.2 °F 50% 29.86 in - SSE 11.2 mph - N/A   Clear
2:45 PM 48.2 °F - 30.2 °F 50% 29.86 in - SSE 11.2 mph - N/A   Clear
3:00 PM 48 °F - 30 °F 38% 29.88 in 9 mi SSE 11.2 mph - -   Clear
3:15 PM 46.4 °F 42.0 °F 30.2 °F 53% 29.86 in - SSE 8.9 mph - N/A   Clear
3:45 PM 44.6 °F 39.8 °F 30.2 °F 57% 29.86 in - SSE 8.9 mph - N/A   Clear
4:00 PM 45 °F - 31 °F 46% 29.87 in 9 mi SSE 8.9 mph - -   Clear
4:15 PM 42.8 °F 37.6 °F 32.0 °F 66% 29.86 in - SSE 8.9 mph - N/A   Clear
4:45 PM 41.0 °F 35.4 °F 32.0 °F 70% 29.86 in - SE 8.9 mph - N/A   Clear
5:00 PM 41 °F - 31 °F 58% 29.87 in 6 mi SE 8.9 mph - -   Clear
5:15 PM 42.8 °F 37.6 °F 32.0 °F 66% 29.83 in - SSE 8.9 mph - N/A   Clear
5:45 PM - - - N/A% - 1.6 mi SSE 8.9 mph - N/A   Clear
6:00 PM 41 °F - 33 °F 66% 29.86 in 6 mi SSE 8.9 mph - -   Scattered Clouds
6:15 PM 41.0 °F 35.4 °F 33.8 °F 76% 29.83 in - SSE 8.9 mph - N/A   Clear
6:45 PM 41.0 °F 34.4 °F 33.8 °F 76% 29.83 in - SSE 11.2 mph - N/A   Clear
7:00 PM 41 °F - 35 °F 71% 29.86 in 6 mi SSE 11.2 mph - -   Clear
7:15 PM 42.8 °F 36.7 °F 35.6 °F 76% 29.83 in - SSE 11.2 mph - N/A   Clear
7:45 PM 41.0 °F 34.4 °F 35.6 °F 81% 29.83 in - SSE 11.2 mph - N/A   Clear
8:00 PM 42 °F - 35 °F 68% 29.86 in 6 mi SSE 11.2 mph - -   Scattered Clouds
8:15 PM 42.8 °F 36.7 °F 35.6 °F 76% 29.83 in - SSE 11.2 mph - N/A   Clear
8:45 PM - - - N/A% - 1.6 mi SSE 11.2 mph - N/A   Clear
9:00 PM 43 °F - 35 °F 65% 29.85 in 6 mi SSE 11.2 mph - -   Partly Cloudy
9:15 PM 42.8 °F 37.6 °F 35.6 °F 76% 29.83 in - SSE 8.9 mph - N/A   Clear
9:45 PM 42.8 °F 36.7 °F 35.6 °F 76% 29.83 in - SSE 11.2 mph - N/A   Clear
10:00 PM 42 °F - 35 °F 68% 29.84 in 6 mi SSE 11.2 mph - -   Overcast
10:15 PM 41.0 °F 34.4 °F 35.6 °F 81% 29.80 in - SSE 11.2 mph - N/A   Clear
10:45 PM 39.2 °F 33.1 °F 33.8 °F 81% 29.83 in - SSE 8.9 mph - N/A   Clear
11:00 PM 39 °F - 34 °F 75% 29.85 in 6 mi SSE 8.9 mph - -   Scattered Clouds
11:15 PM 39.2 °F 33.1 °F 33.8 °F 81% 29.80 in - SSE 8.9 mph - N/A   Clear
11:45 PM - - - N/A% - 4.3 mi North - - N/A   Unknown